K1TTC Weather Reports


time (UTC)temp
C
wind
direction
speed
KPH
gust
KPH
rain 1hr
cm
rain 24hr
cm
rain mn
cm
humidity
%
barometer
mb
20260507211518 16 278 6.4 16.1 0.00 0.38 0.08 25 1007.0
20260507210518 17 283 6.4 16.1 0.00 0.38 0.08 25 1007.1
20260507205519 17 295 6.4 14.5 0.00 0.38 0.08 26 1007.0
20260507204518 17 276 6.4 16.1 0.00 0.41 0.08 26 1007.0
20260507203517 17 274 9.7 25.7 0.00 0.43 0.08 27 1006.9
20260507202723 17 330 8.0 20.9 0.00 0.46 0.08 25 1006.8
20260507201517 17 304 8.0 20.9 0.00 0.46 0.08 26 1006.8
20260507200515 17 249 6.4 16.1 0.00 0.51 0.08 26 1006.9
20260507195515 18 213 8.0 20.9 0.00 0.51 0.08 26 1006.8
20260507194516 18 341 4.8 11.3 0.00 0.51 0.08 24 1006.9
20260507193515 18 259 8.0 20.9 0.00 0.51 0.08 26 1007.0
20260507192517 18 222 3.2 20.9 0.00 0.53 0.08 25 1007.0
20260507191514 17 334 8.0 19.3 0.00 0.53 0.08 24 1007.3
20260507190510 17 240 8.0 24.1 0.00 0.56 0.08 25 1007.3
20260507185514 17 249 8.0 17.7 0.00 0.56 0.08 27 1007.4
20260507184703 17 10 6.4 19.3 0.00 0.56 0.08 26 1007.5
20260507183512 17 341 6.4 17.7 0.00 0.56 0.08 28 1007.4
20260507182510 17 262 8.0 27.4 0.00 0.56 0.08 28 1007.6
20260507181509 17 351 9.7 24.1 0.00 0.56 0.08 24 1007.8
20260507180509 17 288 6.4 14.5 0.00 0.56 0.08 26 1007.7
20260507175508 17 4 11.3 24.1 0.00 0.56 0.08 25 1007.7
20260507174509 17 307 6.4 17.7 0.00 0.56 0.08 31 1007.6
20260507173509 17 283 8.0 19.3 0.00 0.56 0.08 27 1007.6
20260507172509 17 291 4.8 17.7 0.00 0.56 0.08 29 1007.6
20260507171511 16 282 4.8 16.1 0.00 0.56 0.08 32 1007.8
20260507170505 16 238 8.0 25.7 0.00 0.56 0.08 32 1008.0
20260507165503 16 292 8.0 22.5 0.00 0.56 0.08 33 1008.1
20260507164504 16 270 8.0 20.9 0.00 0.56 0.08 30 1008.1
20260507163502 16 324 9.7 22.5 0.00 0.56 0.08 32 1008.2
20260507162502 16 249 8.0 22.5 0.00 0.56 0.08 37 1008.3
20260507161654 15 221 6.4 14.5 0.00 0.56 0.08 42 1008.3
20260507160651 15 292 6.4 17.7 0.00 0.56 0.08 45 1008.3
20260507155651 15 326 6.4 16.1 0.00 0.56 0.08 49 1008.4
20260507154648 15 307 8.0 19.3 0.00 0.56 0.08 48 1008.5
20260507153502 15 278 4.8 14.5 0.00 0.56 0.08 49 1008.5
20260507152501 15 244 6.4 17.7 0.00 0.56 0.08 49 1008.7
20260507151501 14 324 4.8 14.5 0.00 0.56 0.08 51 1008.8
20260507150637 14 303 3.2 12.9 0.00 0.56 0.08 49 1009.0
20260507145502 15 276 3.2 12.9 0.00 0.56 0.08 48 1009.1
20260507144632 15 311 4.8 12.9 0.00 0.56 0.08 51 1009.2
20260507143502 14 215 3.2 12.9 0.00 0.56 0.08 50 1009.2
20260507142501 14 319 4.8 11.3 0.00 0.56 0.08 49 1009.1
20260507141501 14 275 4.8 12.9 0.00 0.56 0.08 50 1009.2
20260507140627 14 288 6.4 16.1 0.00 0.56 0.08 50 1009.2
20260507135626 14 296 3.2 9.7 0.00 0.56 0.08 52 1009.1
20260507134501 13 313 3.2 8.0 0.00 0.56 0.08 54 1009.1
20260507133501 13 309 4.8 11.3 0.00 0.56 0.08 55 1009.1
20260507132458 13 290 4.8 12.9 0.00 0.56 0.08 58 1009.4
20260507131456 12 283 4.8 12.9 0.00 0.56 0.08 61 1009.5
20260507130450 12 246 4.8 12.9 0.00 0.56 0.08 62 1009.6
20260507125448 11 291 4.8 11.3 0.00 0.56 0.08 64 1009.7
20260507124448 11 270 6.4 14.5 0.00 0.56 0.08 67 1009.6
20260507123450 11 268 4.8 12.9 0.00 0.56 0.08 68 1009.6
20260507122448 10 310 4.8 14.5 0.00 0.56 0.08 70 1009.7
20260507121448 10 291 3.2 9.7 0.00 0.56 0.08 71 1009.7
20260507120611 10 272 4.8 9.7 0.00 0.56 0.08 72 1009.8
20260507115617 9 295 4.8 9.7 0.00 0.56 0.08 73 1009.8
20260507114448 9 288 3.2 9.7 0.00 0.56 0.08 73 1009.6
20260507113449 9 253 3.2 9.7 0.00 0.56 0.08 74 1009.7
20260507112446 9 284 1.6 4.8 0.00 0.56 0.08 74 1009.6
20260507111446 9 290 1.6 4.8 0.00 0.56 0.08 74 1009.5
20260507110612 8 276 0.0 3.2 0.00 0.56 0.08 75 1009.4
20260507105447 8 280 1.6 4.8 0.00 0.56 0.08 75 1009.6
20260507104448 8 317 1.6 3.2 0.00 0.56 0.08 75 1009.3
20260507103444 8 318 0.0 3.2 0.00 0.56 0.08 75 1009.1
20260507102445 8 292 1.6 6.4 0.00 0.56 0.08 75 1008.9
20260507101444 8 303 3.2 8.0 0.00 0.56 0.08 76 1008.6
20260507100443 8 297 3.2 6.4 0.00 0.56 0.08 76 1008.9
20260507095444 8 307 3.2 8.0 0.00 0.56 0.08 76 1008.8
20260507094444 9 302 1.6 6.4 0.00 0.56 0.08 77 1009.3
20260507093558 9 275 0.0 3.2 0.00 0.56 0.08 77 1008.7
20260507092444 9 276 1.6 3.2 0.00 0.56 0.08 78 1009.0
20260507091554 9 272 1.6 6.4 0.00 0.56 0.08 78 1009.0
20260507090555 10 224 1.6 4.8 0.00 0.56 0.08 78 1009.3
20260507085551 10 282 0.0 3.2 0.00 0.56 0.08 78 1008.9
20260507084443 10 282 1.6 4.8 0.03 0.56 0.08 78 1008.7
20260507083444 10 261 3.2 8.0 0.03 0.56 0.08 78 1008.9
20260507082444 10 305 1.6 4.8 0.03 0.56 0.08 78 1008.5
20260507081444 10 276 1.6 3.2 0.03 0.56 0.08 79 1008.6
20260507080553 10 273 0.0 3.2 0.03 0.56 0.08 79 1008.4
20260507075443 10 281 0.0 4.8 0.03 0.56 0.08 79 1008.8
20260507074441 10 289 1.6 3.2 0.00 0.53 0.05 79 1008.7
20260507073441 10 289 0.0 1.6 0.00 0.53 0.05 79 1008.9
20260507072441 10 289 0.0 1.6 0.00 0.53 0.05 80 1008.3
20260507071536 10 289 0.0 1.6 0.00 0.53 0.05 80 1007.9
20260507070441 10 288 0.0 3.2 0.00 0.53 0.05 80 1008.0
20260507065442 10 289 1.6 4.8 0.00 0.53 0.05 80 1007.8
20260507064437 10 285 1.6 4.8 0.00 0.53 0.05 81 1007.9
20260507063437 11 274 0.0 4.8 0.00 0.53 0.05 81 1007.8
20260507062439 11 294 1.6 6.4 0.00 0.53 0.05 82 1007.9
20260507061503 11 299 3.2 6.4 0.00 0.53 0.05 82 1007.8
20260507060434 11 298 3.2 8.0 0.00 0.53 0.05 82 1007.9
20260507055449 11 311 3.2 8.0 0.00 0.53 0.05 82 1007.9
20260507054434 11 297 1.6 6.4 0.00 0.53 0.05 83 1008.2
20260507053430 12 288 1.6 3.2 0.00 0.53 0.05 83 1008.3
20260507052432 12 288 3.2 8.0 0.00 0.53 0.05 83 1008.2
20260507051429 12 337 3.2 4.8 0.03 0.53 0.05 83 1008.3
20260507050430 12 299 3.2 8.0 0.03 0.53 0.05 83 1008.2
20260507045429 12 296 3.2 6.4 0.08 0.53 0.05 83 1008.2
20260507044430 13 297 3.2 8.0 0.08 0.53 0.05 83 1008.2
20260507043429 13 301 3.2 9.7 0.08 0.53 0.05 83 1007.9
20260507042434 13 308 3.2 6.4 0.08 0.53 0.05 84 1007.9
20260507041428 13 259 3.2 8.0 0.05 0.51 0.03 84 1008.1
20260507040429 13 277 4.8 11.3 0.05 0.51 0.03 84 1008.3
20260507035428 13 265 4.8 12.9 0.00 0.46 0.46 84 1007.9
20260507034428 14 257 3.2 6.4 0.00 0.46 0.46 84 1007.7
20260507033428 15 263 4.8 11.3 0.00 0.46 0.46 84 1007.7
20260507032428 15 253 3.2 11.3 0.00 0.46 0.46 85 1007.4
20260507031428 15 201 1.6 8.0 0.00 0.46 0.46 84 1007.1
20260507030427 15 276 3.2 12.9 0.00 0.46 0.46 84 1007.1
20260507025426 15 206 4.8 17.7 0.00 0.46 0.46 84 1006.9
20260507024427 15 195 4.8 16.1 0.00 0.46 0.46 84 1007.0
20260507023426 15 224 6.4 12.9 0.00 0.46 0.46 84 1006.9
20260507022424 15 200 8.0 16.1 0.00 0.46 0.46 84 1007.1
20260507021421 15 184 4.8 12.9 0.00 0.46 0.46 84 1006.7
20260507020423 15 220 3.2 8.0 0.00 0.46 0.46 84 1006.9
20260507015422 15 161 6.4 12.9 0.00 0.46 0.46 84 1006.9
20260507014423 15 179 6.4 12.9 0.00 0.46 0.46 84 1007.1
20260507013422 15 188 4.8 11.3 0.00 0.46 0.46 84 1007.0
20260507012422 15 182 6.4 16.1 0.00 0.46 0.46 83 1007.1
20260507011421 15 174 6.4 12.9 0.00 0.46 0.46 83 1007.0
20260507010421 15 184 6.4 17.7 0.00 0.46 0.46 83 1007.1
20260507005419 15 189 4.8 11.3 0.00 0.46 0.46 83 1007.1
20260507004421 15 204 8.0 14.5 0.00 0.46 0.46 83 1007.0
20260507003417 15 205 4.8 12.9 0.00 0.46 0.46 82 1006.9
20260507002417 15 182 4.8 12.9 0.00 0.46 0.46 82 1006.9
20260507001418 15 191 6.4 12.9 0.03 0.46 0.46 82 1006.9
20260507000541 15 199 6.4 16.1 0.10 0.46 0.46 82 1006.8
20260506235539 15 168 6.4 19.3 0.15 0.46 0.46 81 1006.7
20260506234415 15 177 6.4 12.9 0.18 0.46 0.46 81 1006.8
20260506233415 15 175 6.4 12.9 0.20 0.46 0.46 81 1006.7
20260506232415 15 195 6.4 17.7 0.23 0.46 0.46 80 1006.8
20260506231416 15 159 8.0 14.5 0.20 0.43 0.43 80 1006.8
20260506230417 15 130 6.4 17.7 0.13 0.36 0.33 80 1007.0
20260506225416 15 163 6.4 14.5 0.08 0.30 0.30 79 1007.0
20260506224415 15 229 8.0 22.5 0.08 0.28 0.28 79 1007.0
20260506223415 15 253 6.4 12.9 0.05 0.25 0.25 79 1007.1
20260506222416 15 156 8.0 16.1 0.03 0.23 0.23 78 1007.1
20260506221409 15 185 8.0 17.7 0.05 0.23 0.23 78 1007.2
20260506220409 16 186 8.0 20.9 0.05 0.23 0.23 78 1007.3
20260506215410 16 182 6.4 14.5 0.08 0.23 0.23 77 1007.5
20260506214409 16 166 6.4 17.7 0.05 0.20 0.20 77 1007.4
20260506213410 16 160 8.0 16.1 0.08 0.20 0.20 77 1007.5